• Join FlightAware (Why Join?)
  • Login
  • US Flag 
02:09PM EDT


 

Airport Tracker/Info


-or-


 

Live Flight TrackerFlight Track Log ✈ JBU56 ✈ 03-Dec-2013 ✈ KIAD - KBOS

Flight Track Log - Related Links

Times and Time Zones

All times are in EST time to prevent confusion due to time zone crossing. See the JBU56 flight status page for this flight to view local times or setup timezone preferences in your user account.

Time Position Orientation Groundspeed Altitude Reporting Facility
EST Latitude Longitude Course Direction KTS MPH feet Rate Location/Type
09:47AM 38.9500 -77.5000 90° East 162 186 1,700  Level Potomac TRACON
09:48AM 38.9833 -77.5667 303° West 214 246 3,200 1,860 Climbing Potomac TRACON
09:49AM 39.1858 -77.0501 74° East  Level Estimated
09:49AM 39.0500 -77.5667 360° North 281 323 5,700  Level Potomac TRACON
09:50AM 39.2452 -76.9473 90° East  Level Estimated
09:50AM 39.1000 -77.5000 46° Northeast 282 325 8,600  Level Potomac TRACON
09:50AM 39.1500 -77.4333 46° Northeast 314 361 10,000 720 Climbing Potomac TRACON
09:51AM 39.3045 -76.8442 76° East  Level Estimated
09:51AM 39.1500 -77.3167 90° East 354 407 9,900  Level Potomac TRACON
09:52AM 39.3637 -76.7410 90° East  Level Estimated
09:54AM 39.0925 -77.0197 104° East 361 415 15,200  Level Washington Center
09:55AM 39.1044 -76.8808 84° East 367 422 17,500 2,280 Climbing Washington Center
09:56AM 39.1142 -76.7367 85° East 383 441 19,900 2,160 Climbing Washington Center
09:57AM 39.1239 -76.5869 85° East 403 464 21,800 1,500 Climbing Washington Center
09:58AM 39.1356 -76.4292 85° East 424 488 22,900 540 Climbing Washington Center
09:59AM 39.1492 -76.2686 84° East 434 499 23,000  Climbing Washington Center
10:00AM 39.1642 -76.1378 82° East 448 516 23,000 180 Level Washington Center
10:01AM 39.2006 -75.9506 76° East 454 522 23,400 900 Climbing Washington Center
10:02AM 39.2819 -75.8275 49° Northeast 429 494 24,900 1,500 Climbing Washington Center
10:03AM 39.3675 -75.7069 47° Northeast 440 506 26,400 1,320 Climbing Washington Center
10:04AM 39.4531 -75.5861 47° Northeast 446 513 27,600 1,140 Climbing Washington Center
10:05AM 39.5425 -75.4569 48° Northeast 461 531 28,700 960 Climbing Washington Center
10:06AM 39.6319 -75.3303 47° Northeast 467 537 29,600 1,140 Climbing Washington Center
10:07AM 39.7233 -75.2003 48° Northeast 473 544 31,000 540 Climbing Washington Center
10:08AM 39.8519 -75.0108 48° Northeast 496 571 31,000  Level New York Center
10:09AM 39.9397 -74.8833 48° Northeast 490 564 31,000  Level New York Center
10:10AM 40.0256 -74.7475 50° Northeast 490 564 31,000  Level New York Center
10:11AM 40.1175 -74.6169 47° Northeast 490 564 31,000  Level New York Center
10:12AM 40.2033 -74.4806 50° Northeast 485 558 31,000  Level New York Center
10:13AM 40.2886 -74.3464 50° Northeast 490 564 31,000  Level New York Center
10:14AM 40.3761 -74.2119 49° Northeast 485 558 31,000  Level New York Center
10:15AM 40.4614 -74.0744 51° Northeast 480 552 31,000  Level New York Center
10:16AM 40.5461 -73.9419 50° Northeast 480 552 31,000 -240 Level New York Center
10:18AM 40.7331 -73.6492 50° Northeast 483 556 30,300 -960 Descending Boston Center
10:19AM 40.8069 -73.5297 51° Northeast 484 557 28,100 -1,680 Descending Boston Center
10:20AM 40.9047 -73.3728 50° Northeast 461 531 27,000 -540 Descending Boston Center
10:21AM 40.9828 -73.2586 48° Northeast 455 524 27,000 -900 Level Boston Center
10:22AM 41.0664 -73.1342 48° Northeast 455 524 25,200 -2,040 Descending Boston Center
10:23AM 41.1475 -73.0131 48° Northeast 444 511 22,900 -2,100 Descending Boston Center
10:24AM 41.2106 -72.8847 57° Northeast 423 487 21,000 -960 Descending Boston Center
10:25AM 41.2597 -72.7483 64° Northeast 414 476 21,000  Level Boston Center
10:26AM 41.3167 -72.5900 64° Northeast 416 479 21,000  Level Boston Center
10:27AM 41.3639 -72.4575 65° Northeast 399 459 21,000  Level Boston Center
10:29AM 41.4106 -72.3275 64° Northeast 390 449 21,000  Level Boston Center
10:30AM 41.4567 -72.1964 65° Northeast 389 448 21,000 -600 Level Boston Center
10:31AM 41.5033 -72.0653 65° Northeast 392 451 19,900 -1,680 Descending Boston Center
10:32AM 41.5533 -71.9244 65° Northeast 382 440 17,700 -2,040 Descending Boston Center
10:33AM 41.5958 -71.8017 65° Northeast 368 423 15,800 -1,920 Descending Boston Center
10:34AM 41.6369 -71.6847 65° Northeast 352 405 13,900 -1,860 Descending Boston Center
10:35AM 41.6786 -71.5664 65° Northeast 334 384 12,100 -1,440 Descending Boston Center
10:36AM 41.7133 -71.4631 66° East 313 360 11,000 -600 Descending Boston Center
10:37AM 41.7539 -71.3686 60° Northeast 297 342 11,000  Level Boston Center
10:38AM 41.8131 -71.2922 44° Northeast 297 342 11,000 -120 Level Boston Center
10:39AM 41.8900 -71.2378 28° Northeast 295 339 10,800 -1,020 Descending Boston Center
10:40AM 42.0167 -71.1833 18° North 282 325 8,400 -1,200 Descending KA90
10:41AM 42.0833 -71.1500 20° North 235 270 7,800 -840 Descending KA90
10:42AM 42.0994 -71.1339 37° Northeast 238 274 7,200 -1,740 Descending Boston Center
10:42AM 42.1333 -71.1167 21° North 220 253 6,100 -1,980 Descending KA90
10:43AM 42.1833 -71.0833 26° Northeast 216 249 4,300 -1,380 Descending KA90
10:44AM 42.2333 -71.0667 14° North 165 190 3,400 -1,260 Descending KA90
10:45AM 42.2833 -71.0500 14° North 153 176 1,800 -1,200 Descending KA90
10:46AM 42.3167 -71.0333 20° North 126 145 1,000 -540 Descending KA90
10:48AM 42.3664 -71.0036 24° Northeast 140 161 500 -360 Descending Boston Center